TimeEST,TemperatureF,Dew PointF,Humidity,Sea Level PressureIn,VisibilityMPH,Wind Direction,Wind SpeedMPH,Gust SpeedMPH,PrecipitationIn,Events,Conditions,WindDirDegrees,DateUTC
12:15 AM,47.1,34.5,62,30.12,10.0,Calm,Calm,-,N/A,,Overcast,0,2012-11-20 05:15:00
12:34 AM,43.2,33.1,68,30.12,10.0,Calm,Calm,-,N/A,,Overcast,0,2012-11-20 05:34:00
12:55 AM,41.5,33.1,72,30.12,10.0,Calm,Calm,-,N/A,,Overcast,0,2012-11-20 05:55:00
1:15 AM,43.0,33.3,69,30.12,10.0,Calm,Calm,-,N/A,,Overcast,0,2012-11-20 06:15:00
1:34 AM,42.8,33.3,69,30.11,10.0,Calm,Calm,-,N/A,,Overcast,0,2012-11-20 06:34:00
1:55 AM,43.0,33.8,70,30.11,10.0,Calm,Calm,-,N/A,,Light Drizzle,0,2012-11-20 06:55:00
2:15 AM,41.9,34.2,74,30.11,10.0,Calm,Calm,-,N/A,,Overcast,0,2012-11-20 07:15:00
2:34 AM,41.5,34.0,75,30.11,10.0,Calm,Calm,-,N/A,,Overcast,0,2012-11-20 07:34:00
2:55 AM,41.7,34.2,75,30.11,10.0,Calm,Calm,-,N/A,,Overcast,0,2012-11-20 07:55:00
3:15 AM,41.9,34.7,76,30.11,10.0,Calm,Calm,-,N/A,,Overcast,0,2012-11-20 08:15:00
3:34 AM,43.5,35.4,73,30.11,10.0,Calm,Calm,-,N/A,,Overcast,0,2012-11-20 08:34:00
3:55 AM,44.6,36.3,73,30.09,10.0,Calm,Calm,-,N/A,,Overcast,0,2012-11-20 08:55:00
4:15 AM,45.1,37.4,74,30.09,10.0,Calm,Calm,-,N/A,,Overcast,0,2012-11-20 09:15:00
4:34 AM,43.0,36.1,77,30.09,10.0,Calm,Calm,-,N/A,,Overcast,0,2012-11-20 09:34:00
4:55 AM,42.1,36.0,79,30.09,10.0,Calm,Calm,-,N/A,,Overcast,0,2012-11-20 09:55:00
5:15 AM,42.3,36.1,79,30.09,10.0,Calm,Calm,-,N/A,,Overcast,0,2012-11-20 10:15:00
5:33 AM,43.5,37.2,78,30.09,10.0,Calm,Calm,-,N/A,,Overcast,0,2012-11-20 10:33:00
5:55 AM,41.5,36.1,81,30.09,10.0,Calm,Calm,-,N/A,,Overcast,0,2012-11-20 10:55:00
6:14 AM,41.5,36.1,81,30.09,10.0,Calm,Calm,-,N/A,Rain,Rain,0,2012-11-20 11:14:00
6:35 AM,42.1,36.7,81,30.09,10.0,Calm,Calm,-,N/A,,Light Drizzle,0,2012-11-20 11:35:00
6:55 AM,42.4,37.9,84,30.09,10.0,Calm,Calm,-,N/A,,Overcast,0,2012-11-20 11:55:00
7:14 AM,45.1,39.4,80,30.09,10.0,Calm,Calm,-,N/A,,Overcast,0,2012-11-20 12:14:00
7:35 AM,44.4,39.0,81,30.09,10.0,Calm,Calm,-,N/A,,Overcast,0,2012-11-20 12:35:00
7:55 AM,43.2,38.1,82,30.09,10.0,Calm,Calm,-,N/A,,Overcast,0,2012-11-20 12:55:00
8:14 AM,42.1,37.8,85,30.10,10.0,Calm,Calm,-,N/A,,Overcast,0,2012-11-20 13:14:00
8:35 AM,45.1,39.9,82,30.11,10.0,Calm,Calm,-,N/A,,Overcast,0,2012-11-20 13:35:00
8:55 AM,45.1,39.7,81,30.11,10.0,Calm,Calm,-,N/A,,Light Drizzle,0,2012-11-20 13:55:00
9:14 AM,45.1,40.1,82,30.10,10.0,Calm,Calm,-,N/A,,Light Drizzle,0,2012-11-20 14:14:00
9:35 AM,45.1,40.1,82,30.10,7.0,Calm,Calm,-,N/A,Rain,Light Rain,0,2012-11-20 14:35:00
9:55 AM,45.1,40.5,84,30.11,7.0,Calm,Calm,-,N/A,,Overcast,0,2012-11-20 14:55:00
10:14 AM,45.7,40.5,82,30.09,7.0,Calm,Calm,-,N/A,,Overcast,0,2012-11-20 15:14:00
10:35 AM,46.2,40.6,81,30.09,5.0,Calm,Calm,-,N/A,,Haze,0,2012-11-20 15:35:00
10:55 AM,47.7,41.9,80,30.09,7.0,Calm,Calm,-,N/A,,Overcast,0,2012-11-20 15:55:00
11:14 AM,47.7,42.3,82,30.09,7.0,Calm,Calm,-,N/A,,Overcast,0,2012-11-20 16:14:00
11:35 AM,47.7,41.5,79,30.09,7.0,Calm,Calm,-,N/A,,Overcast,0,2012-11-20 16:35:00
11:55 AM,47.7,41.2,78,30.09,7.0,Calm,Calm,-,N/A,,Overcast,0,2012-11-20 16:55:00
12:14 PM,47.7,40.3,76,30.08,10.0,Calm,Calm,-,N/A,,Overcast,0,2012-11-20 17:14:00
12:35 PM,47.7,40.6,77,30.08,10.0,Calm,Calm,-,N/A,,Overcast,0,2012-11-20 17:35:00
12:55 PM,48.4,40.8,75,30.08,10.0,Calm,Calm,-,N/A,,Overcast,0,2012-11-20 17:55:00
1:14 PM,49.3,41.5,75,30.08,10.0,WSW,4.6,-,N/A,,Overcast,240,2012-11-20 18:14:00
1:35 PM,48.4,41.0,76,30.08,10.0,Calm,Calm,-,N/A,,Overcast,0,2012-11-20 18:35:00
1:55 PM,48.6,41.2,76,30.09,10.0,WSW,3.5,-,N/A,,Overcast,240,2012-11-20 18:55:00
2:14 PM,48.6,41.5,77,30.09,10.0,WSW,3.5,-,N/A,,Overcast,250,2012-11-20 19:14:00
2:35 PM,49.1,42.3,77,30.09,10.0,Calm,Calm,-,N/A,,Overcast,0,2012-11-20 19:35:00
2:55 PM,50.2,42.6,75,30.09,7.0,WSW,3.5,-,N/A,,Overcast,240,2012-11-20 19:55:00
3:14 PM,48.4,42.1,79,30.09,10.0,WSW,3.5,-,N/A,,Overcast,240,2012-11-20 20:14:00
3:35 PM,47.7,42.8,83,30.09,7.0,WSW,4.6,-,N/A,,Overcast,240,2012-11-20 20:35:00
3:55 PM,47.7,43.2,84,30.09,7.0,SW,3.5,-,N/A,,Overcast,230,2012-11-20 20:55:00
4:14 PM,47.7,44.1,87,30.09,5.0,SW,3.5,-,N/A,,Overcast,230,2012-11-20 21:14:00
4:35 PM,47.7,44.6,89,30.10,4.0,WSW,3.5,-,N/A,,Overcast,240,2012-11-20 21:35:00
4:55 PM,47.7,44.8,90,30.11,4.0,Calm,Calm,-,N/A,,Overcast,0,2012-11-20 21:55:00
5:14 PM,47.7,44.8,90,30.11,5.0,Calm,Calm,-,N/A,,Overcast,0,2012-11-20 22:14:00
5:35 PM,47.7,45.1,91,30.11,5.0,Calm,Calm,-,N/A,,Overcast,0,2012-11-20 22:35:00
5:55 PM,47.7,45.3,92,30.11,4.0,Calm,Calm,-,N/A,,Mostly Cloudy,0,2012-11-20 22:55:00
6:14 PM,47.5,45.5,93,30.11,4.0,Calm,Calm,-,N/A,,Mostly Cloudy,0,2012-11-20 23:14:00
6:35 PM,45.1,43.3,93,30.12,3.0,Calm,Calm,-,N/A,,Mist,0,2012-11-20 23:35:00
6:55 PM,41.7,40.1,94,30.12,3.0,Calm,Calm,-,N/A,,Scattered Clouds,0,2012-11-20 23:55:00
7:14 PM,41.9,40.5,95,30.13,4.0,Calm,Calm,-,N/A,,Clear,0,2012-11-21 00:14:00
7:35 PM,41.4,40.1,95,30.13,3.0,Calm,Calm,-,N/A,,Mostly Cloudy,0,2012-11-21 00:35:00
7:55 PM,44.6,43.3,95,30.14,4.0,Calm,Calm,-,N/A,,Overcast,0,2012-11-21 00:55:00
8:14 PM,43.7,42.1,94,30.14,4.0,Calm,Calm,-,N/A,,Overcast,0,2012-11-21 01:14:00
8:35 PM,43.5,41.9,94,30.14,5.0,Calm,Calm,-,N/A,,Overcast,0,2012-11-21 01:35:00
8:55 PM,45.1,43.5,94,30.14,5.0,NW,3.5,-,N/A,,Overcast,310,2012-11-21 01:55:00
9:14 PM,46.0,43.5,91,30.14,7.0,Calm,Calm,-,N/A,,Overcast,0,2012-11-21 02:14:00
9:35 PM,47.3,44.6,90,30.14,7.0,Calm,Calm,-,N/A,,Overcast,0,2012-11-21 02:35:00
9:55 PM,46.9,43.9,89,30.14,7.0,Calm,Calm,-,N/A,,Overcast,0,2012-11-21 02:55:00
10:14 PM,45.1,43.0,92,30.14,5.0,Calm,Calm,-,N/A,,Overcast,0,2012-11-21 03:14:00
10:35 PM,45.0,43.2,93,30.15,5.0,Calm,Calm,-,N/A,,Overcast,0,2012-11-21 03:35:00
10:55 PM,44.4,42.3,92,30.14,5.0,Calm,Calm,-,N/A,,Overcast,0,2012-11-21 03:55:00
11:15 PM,42.8,40.8,93,30.14,4.0,Calm,Calm,-,N/A,,Overcast,0,2012-11-21 04:15:00
11:35 PM,42.8,40.8,93,30.14,4.0,Calm,Calm,-,N/A,,Overcast,0,2012-11-21 04:35:00
11:54 PM,41.9,40.1,93,30.14,3.0,Calm,Calm,-,N/A,,Overcast,0,2012-11-21 04:54:00